Caldwell, NJ

7:13 PM EST on November 22, 2019 (GMT -0500)
Essex County

Weather History for KCDW - September, 2019

Change the Weather History Date:

Thursday, September 26, 2019

  Actual Average Record
Temperature  
Mean Temperature 68 °F -  
Max Temperature 82 °F 69 °F 90 °F (1970)
Min Temperature 54 °F 47 °F 34 °F (1963)
Cooling Degree Days 3    
Growing Degree Days 18 (Base 50)    
Moisture  
Dew Point 59 °F    
Average Humidity 83    
Maximum Humidity 97    
Minimum Humidity 51    
Precipitation  
Precipitation 0.10 in - - ()
Sea Level Pressure  
Sea Level Pressure 29.86 in    
Wind  
Wind Speed 2 mph ()    
Max Wind Speed 12 mph    
Max Gust Speed -    
Visibility 8.0 miles    
Events Rain    
Averages and records for this station are not official NWS values.
T = Trace of Precipitation, MM = Missing Value Source: Averaged Metar Reports

Daily Weather History Graph

Daily Weather History Graph

Search for Another Location

Airport or City:

Astronomy

Sep. 26, 2019 Rise Set
Actual Time 6:48 AM EDT 6:47 PM EDT
Civil Twilight 6:21 AM EDT 7:15 PM EDT
Nautical Twilight 5:49 AM EDT 7:47 PM EDT
Astronomical Twilight 5:16 AM EDT 8:19 PM EDT
Moon 3:50 AM EDT (9/26) 6:00 PM EDT (9/26)
Length of Visible Light 12h 54m
Length of Day
11h 59m
Waning Crescent, 7% of the Moon is Illuminated
Sep 26
Waning Crescent
Sep 28
New
Oct 5
First Quarter
Oct 13
Full
Oct 21
Last Quarter

Hourly Weather History & Observations

Time (EDT) Temp. Heat Index Dew Point Humidity Pressure Visibility Wind Dir Wind Speed Gust Speed Precip Events Conditions
12:53 AM 57.9 °F - 53.1 °F 84% 29.88 in 10.0 mi Calm Calm - N/A   Clear
1:53 AM 57.0 °F - 53.1 °F 87% 29.88 in 10.0 mi Calm Calm - N/A   Clear
2:53 AM 55.9 °F - 53.1 °F 90% 29.87 in 10.0 mi Calm Calm - N/A   Clear
3:53 AM 55.0 °F - 53.1 °F 93% 29.86 in 10.0 mi Calm Calm - N/A   Clear
4:53 AM 54.0 °F - 52.0 °F 93% 29.86 in 10.0 mi Calm Calm - N/A   Clear
5:53 AM 55.0 °F - 52.0 °F 89% 29.86 in 10.0 mi Calm Calm - N/A   Clear
6:53 AM 54.0 °F - 52.0 °F 93% 29.85 in 10.0 mi Calm Calm - N/A   Clear
7:53 AM 57.0 °F - 54.0 °F 89% 29.85 in 10.0 mi Calm Calm - N/A   Clear
8:53 AM 64.0 °F - 55.9 °F 75% 29.85 in 10.0 mi Calm Calm - N/A   Clear
9:53 AM 69.1 °F - 60.1 °F 73% 29.85 in 10.0 mi Variable 5.8 mph - N/A   Scattered Clouds
10:53 AM 75.0 °F - 63.0 °F 66% 29.82 in 10.0 mi Variable 6.9 mph - N/A   Clear
11:53 AM 79.0 °F - 63.0 °F 58% 29.79 in 10.0 mi SSW 8.1 mph - N/A   Partly Cloudy
12:53 PM 82.0 °F 83.4 °F 64.0 °F 54% 29.77 in 10.0 mi Variable 5.8 mph - N/A   Mostly Cloudy
1:53 PM 82.0 °F 83.0 °F 62.1 °F 51% 29.77 in 10.0 mi WNW 8.1 mph - N/A   Mostly Cloudy
2:53 PM 79.0 °F - 60.1 °F 52% 29.77 in 10.0 mi NW 11.5 mph - N/A   Overcast
3:53 PM 73.0 °F - 60.1 °F 64% 29.80 in 10.0 mi NW 10.4 mph - 0.00 in Rain Light Rain
4:07 PM 68.0 °F - 63.0 °F 84% 29.79 in 1.8 mi Variable 4.6 mph - 0.05 in Rain Rain
4:18 PM 68.0 °F - 64.9 °F 90% 29.80 in 3.0 mi NW 3.5 mph - 0.07 in Rain Light Rain
4:53 PM 68.0 °F - 64.0 °F 87% 29.82 in 10.0 mi Calm Calm - 0.10 in Rain Light Rain
5:53 PM 69.1 °F - 64.0 °F 84% 29.83 in 10.0 mi Variable 3.5 mph - 0.00 in   Mostly Cloudy
6:53 PM 66.0 °F - 63.0 °F 90% 29.85 in 10.0 mi Calm Calm - N/A   Partly Cloudy
7:53 PM 63.0 °F - 62.1 °F 97% 29.89 in 9.0 mi Calm Calm - N/A   Clear
8:53 PM 63.0 °F - 61.0 °F 93% 29.92 in 6.0 mi Calm Calm - N/A   Clear
9:07 PM 62.1 °F - 60.1 °F 93% 29.92 in 1.8 mi Calm Calm - N/A   Clear
9:16 PM 62.1 °F - 61.0 °F 96% 29.92 in 3.0 mi SSW 3.5 mph - N/A   Clear
9:53 PM 61.0 °F - 59.0 °F 93% 29.95 in 8.0 mi Calm Calm - N/A   Clear
10:37 PM 60.1 °F - 59.0 °F 96% 29.95 in 2.5 mi Calm Calm - N/A   Clear
10:44 PM 60.1 °F - 59.0 °F 96% 29.95 in 7.0 mi Calm Calm - N/A   Clear
10:53 PM 60.1 °F - 59.0 °F 96% 29.97 in 5.0 mi Calm Calm - N/A   Clear
11:53 PM 59.0 °F - 57.0 °F 93% 29.99 in 4.0 mi Calm Calm - N/A   Clear